Location: Northern Prairie Star Party
(53.2167°N, 112.5333°W)
Time: 19:35:34
(UTC-06:00)

Daily predictions for brighter satellites

Satellite Brightness Start Highest point End
(mag) Time Altitude Azimuth Time Altitude Azimuth Time Altitude Azimuth
Meteor 1-22 Rocket 4.4 20:21:01 10° S 20:26:59 83° E 20:33:07 10° NNE
ERS-1 Rocket 4.3 20:24:43 10° ESE 20:28:38 23° NE 20:32:33 10° N
Cosmos 2263 Rocket 4.3 20:24:02 10° W 20:28:47 27° NW 20:33:32 10° NNE
HJ-1C 3.7 20:27:51 10° S 20:31:15 73° WSW 20:34:42 10° NNW
Cosmos 1340 Rocket 3.4 20:28:29 10° N 20:32:18 38° ENE 20:36:03 10° SE
GP-B 3.8 20:28:40 10° SE 20:32:42 35° E 20:36:46 10° NNE
USA 186 1.7 20:31:07 10° SE 20:33:08 30° ENE 20:35:10 10° N
Cosmos 2344 3.8 20:26:22 10° SSW 20:33:59 67° SE 20:43:06 10° NE
H-2A R/B 4.1 20:33:12 10° ENE 20:35:01 12° NE 20:36:49 10° NNE
BREEZE-M DEB (TANK) 2.7 20:33:23 10° WSW 20:35:40 36° S 20:38:03 10° ESE
SJ-6B 3.9 20:32:35 10° S 20:36:11 46° W 20:39:51 10° NNW
CZ-4B DEB 3.7 20:34:55 10° SE 20:37:40 29° ENE 20:40:26 10° N
H-2A R/B 2.9 20:33:51 10° SSE 20:37:47 87° WSW 20:41:47 10° NNW
Cosmos 1821 Rocket 4.5 20:34:26 10° SSW 20:40:47 70° WNW 20:47:07 10° N
Cosmos 2297 4.1 20:36:04 10° S 20:41:24 42° ESE 20:46:48 10° NE
Cosmos 1937 Rocket 4.1 20:36:42 10° SW 20:41:57 65° WNW 20:47:17 10° NNE
Resurs 01 Rocket 1.8 20:37:54 10° SSE 20:42:19 81° WSW 20:46:48 10° NNW
ISS -1.6 20:43:46 10° SSE 20:44:29 11° SE 20:45:11 10° SE
Meteor 1-29 4.4 20:42:12 10° NE 20:44:47 19° E 20:47:23 10° SE
Cosmos 2082 Rocket 2.7 20:41:25 10° NW 20:47:04 65° WSW 20:52:40 10° SSE
Cosmos 1743 Rocket 4.0 20:47:13 10° N 20:51:28 43° ENE 20:55:44 10° SE
Cosmos 1500 Rocket 4.3 20:48:25 10° N 20:52:24 34° ENE 20:56:20 10° SE
Timation 1 Rocket 4.4 20:47:51 10° SSW 20:53:45 59° ESE 20:59:40 10° NE
COSMOS 2487 3.5 20:50:45 10° NW 20:54:13 49° WSW 20:57:40 10° S
SL-14 R/B 4.1 20:51:27 10° N 20:54:57 31° ENE 20:58:17 11° SE
SAR-Lupe-4 3.5 20:53:11 10° SSE 20:56:46 79° ENE 21:00:23 10° NNW
Cosmos 2058 4.1 20:55:26 10° N 20:58:54 25° ENE 21:01:37 14° ESE
Cosmos 1605 Rocket 4.1 20:52:38 10° S 20:58:58 86° W 21:05:25 10° N
ARGOS 4.4 20:55:16 11° ESE 20:59:07 23° NE 21:03:16 10° N
YAOGAN 6 3.8 20:58:46 13° ESE 21:01:26 27° ENE 21:04:37 10° N
Cosmos 1328 4.3 20:58:33 10° N 21:02:21 41° ENE 21:06:02 10° SE
Cosmos 2100 Rocket 4.2 20:56:57 10° SSE 21:03:02 52° E 21:09:13 10° NNE
Cosmos 1271 Rocket 3.2 20:59:21 10° SSE 21:03:09 42° E 21:07:00 10° NNE
Cosmos 2251 Rocket 3.6 20:58:33 10° NNW 21:03:52 64° ENE 21:09:11 10° SE
Cosmos 1674 2.8 21:00:20 10° NNW 21:04:07 77° W 21:07:55 10° S
Cosmos 1758 3.3 21:01:04 10° S 21:05:03 88° W 21:09:07 10° N
Tsikada Rocket 4.5 21:02:43 10° N 21:08:34 41° ENE 21:14:02 12° SE
Cosmos 1408 Rocket 3.9 21:06:44 10° NNW 21:11:13 69° W 21:15:39 10° S
Cosmos 1953 2.4 21:07:18 10° SSW 21:11:22 83° W 21:15:27 10° N
Cosmos 372 Rocket 3.9 21:08:18 10° S 21:13:21 62° ESE 21:18:29 10° NNE
SAR-Lupe-1 4.2 21:11:55 10° S 21:15:30 75° WSW 21:19:06 10° NNW
Cosmos 2151 3.5 21:11:33 10° N 21:15:37 41° ENE 21:18:38 16° SE
Lacrosse 5 1.8 21:10:58 10° WSW 21:16:03 86° SSE 21:21:10 10° ENE
Helios 1B rocket 2.5 21:13:21 10° NNE 21:17:25 53° E 21:21:28 10° S
Meteor 1-4 Rocket 3.0 21:17:09 10° SSW 21:20:35 61° WNW 21:24:05 10° N
USA 215 4.3 21:16:05 10° E 21:20:46 20° SE 21:25:25 10° S
Cosmos 1939 Rocket 2.9 21:19:01 10° SSE 21:23:09 75° ENE 21:27:20 10° N
Cosmos 2297 Rocket 4.5 21:22:17 10° NNW 21:25:11 14° NNE 21:28:05 10° NE
SPOT 5 3.8 21:22:09 18° ESE 21:25:31 36° ENE 21:30:18 10° N
Cosmos 1703 4.3 21:22:08 10° N 21:25:37 29° ENE 21:27:04 23° ESE
Lacrosse 5 rocket 3.1 21:23:27 10° W 21:26:37 23° SW 21:29:40 10° S
Cosmos 1802 Rocket 4.0 21:20:51 10° S 21:26:51 60° E 21:32:58 10° NNE
Cosmos 1626 3.3 21:25:17 10° N 21:28:31 26° ENE 21:29:33 23° E
Cosmos 389 Rocket 3.4 21:29:07 26° ESE 21:29:43 27° E 21:32:46 10° NE
CZ-3B DEB 2.1 21:22:08 10° WSW 21:30:56 84° SSE 21:34:17 16° ENE
Lacrosse 4 Rocket 3.7 21:28:15 10° W 21:31:35 24° NW 21:34:57 10° NNE
SJ-11-01 4.3 21:27:37 10° SSE 21:32:21 85° WSW 21:37:06 10° NNW
Cosmos 1842 Rocket 3.8 21:28:15 10° SSE 21:32:27 45° E 21:36:39 10° NNE
Terra 3.6 21:31:04 14° ENE 21:32:44 16° NE 21:35:38 10° NNE
Cosmos 494 Rocket 4.0 21:29:25 10° NNW 21:34:33 79° WSW 21:39:05 13° SSE
SWAS 4.3 21:32:19 10° SSW 21:36:37 73° ESE 21:40:58 10° NE
Cosmos 1184 Rocket 3.2 21:35:36 10° NNW 21:38:59 66° W 21:41:45 14° S
Cosmos 2369 Rocket 3.1 21:43:23 24° ESE 21:43:49 24° ESE 21:48:14 10° NE
Cosmos 2061 Rocket 4.0 21:37:55 10° S 21:44:20 83° E 21:50:49 10° NNE
Helios 1A 4.4 21:42:04 10° SSW 21:45:59 38° W 21:49:57 10° NNW
MetOp-B 4.2 21:44:09 23° SE 21:47:28 59° ENE 21:52:44 10° N
Cosmos 1459 Rocket 4.0 21:42:17 10° S 21:48:32 88° W 21:54:43 10° N
Cosmos 1867 3.6 21:43:17 10° SW 21:48:46 89° NW 21:54:17 10° NE
Cosmos 2227 Rocket 4.2 21:48:36 10° NNW 21:52:18 17° NNE 21:56:00 10° ENE
Envisat 3.7 21:50:04 10° S 21:55:03 54° W 22:00:04 10° NNW
Cosmos 2173 Rocket 4.1 21:50:44 10° SSW 21:56:57 80° W 22:03:19 10° N
Cosmos 2233 Rocket 4.4 21:54:44 25° SE 21:57:40 40° E 22:03:20 10° NNE
Cosmos 1733 4.0 21:53:56 10° SSW 21:57:44 53° WNW 22:01:35 10° N
USA 267 3.3 21:53:31 24° ESE 21:57:46 84° NNE 22:04:20 10° WNW
YAOGAN 11 4.1 21:57:38 29° SSE 21:59:54 75° ENE 22:04:27 10° NNW
Cosmos 1470 3.7 21:56:14 10° SSW 22:00:06 49° WNW 22:03:58 10° N
Geosat 3.9 21:56:13 10° NNE 22:01:17 85° ESE 22:06:20 10° SSW
Sich 1 3.7 21:57:24 10° N 22:01:32 36° ENE 22:02:16 34° E
Cosmos 1864 Rocket 4.5 21:56:44 10° S 22:02:59 65° E 22:09:13 10° NNE
Cosmos 1356 Rocket 4.1 21:59:34 10° NNW 22:03:36 51° W 22:06:39 16° S
deb Kosmos-1763 4.5 22:00:08 10° NNW 22:03:54 49° ENE 22:04:31 44° E
Meteor 2-17 Rocket 4.4 21:58:18 10° S 22:04:28 87° E 22:10:39 10° NNE
NOAA 11 4.1 22:01:18 26° SSE 22:04:28 76° ENE 22:10:00 10° NNW
Cosmos-2242 4.1 22:01:43 10° SSW 22:05:48 45° WNW 22:09:56 10° N
ERS-1 Rocket 3.1 22:03:15 18° S 22:06:58 72° WSW 22:12:02 10° NNW
Cosmos 1666 Rocket 4.0 22:03:08 10° N 22:07:16 41° ENE 22:07:51 39° E
Cosmos 2278 Rocket 3.8 22:02:08 10° WSW 22:07:22 36° NW 22:12:37 10° NNE
Cosmos 1943 Rocket 3.9 22:10:18 16° ENE 22:10:18 16° ENE 22:11:56 10° NE
ATLAS 5 CENTAUR R/B 1.8 22:03:59 10° SW 22:08:50 85° SE 22:14:15 10° NE
Cosmos 1633 Rocket 3.7 22:05:04 10° N 22:09:14 38° ENE 22:09:44 36° E
Coronas F rocket 2.8 22:07:22 10° NNW 22:08:35 27° NNW 22:08:35 27° NNW
H-2A R/B 2.5 22:11:38 36° ESE 22:13:20 48° ENE 22:18:22 10° N
Meteor 1-29 4.3 22:14:33 10° N 22:17:50 40° WNW 22:21:07 10° SW
ISS -1.6 22:17:12 10° SW 22:18:08 17° SW 22:18:08 17° SW
Cosmos 2221 2.5 22:22:43 55° SE 22:23:15 60° E 22:27:36 10° NNE
Cosmos 2016 Rocket 4.3 22:23:04 10° SSW 22:29:13 65° WNW 22:35:20 10° N
CZ-4C R/B 3.4 22:33:39 26° ENE 22:33:39 26° ENE 22:36:49 10° NE
MetOp-A 4.4 22:30:37 28° S 22:33:26 65° WSW 22:38:47 10° NNW
H-2A R/B 2.2 22:34:14 51° ENE 22:34:14 51° ENE 22:38:09 10° N
Cosmos 1805 Rocket 3.5 22:29:48 10° NNW 22:34:16 82° WSW 22:35:13 54° S
Cosmos 2219 3.8 22:29:19 10° NNW 22:34:43 43° NE 22:36:09 36° E
YAOGAN 6 4.2 22:33:14 22° SW 22:34:54 33° W 22:38:21 10° NNW
Cosmos 2058 4.0 22:32:05 10° NNW 22:36:02 42° W 22:37:52 26° SSW
ATLAS CENTAUR R/B 3.8 22:36:22 10° WNW 22:36:37 13° WNW 22:36:37 13° WNW
ARGOS 3.2 22:36:47 39° S 22:38:51 77° WSW 22:44:15 10° NNW
Cosmos 1725 Rocket 4.1 22:32:41 10° SSW 22:38:55 76° WNW 22:45:09 10° N
Cosmos 1470 Rocket 4.2 22:41:59 10° N 22:45:52 43° NE 22:45:52 43° NE
Cosmos 1464 Rocket 4.3 22:45:57 43° E 22:46:23 43° E 22:52:16 10° NNE
ATLAS 3B R/B 4.5 22:54:08 16° ENE 22:54:08 16° ENE 22:55:51 10° ENE
Nimbus 7 Rocket 4.2 22:48:38 10° NNE 22:54:31 71° ESE 22:55:58 51° S
Landsat 7 3.6 22:54:13 76° SE 22:54:32 81° ENE 22:59:19 10° NNW
MOS 1-B Rocket 4.4 22:52:02 36° S 22:55:32 83° WSW 23:02:11 10° NNW
Cosmos 407 Rocket 3.5 22:51:28 10° NNW 22:56:47 65° ENE 22:57:13 62° E
SPOT 1/Viking Rocket 3.7 22:56:05 49° SSW 22:57:23 69° WSW 23:02:38 10° NNW
Meteor 2-12 Rocket 4.4 22:57:18 57° SE 22:58:03 62° E 23:04:02 10° NNE
Lacrosse 5 2.4 22:54:21 10° W 22:59:21 56° N 23:01:14 35° NE
In-Cosmos 22 Rocket 4.4 22:55:29 10° N 23:01:02 51° ENE 23:01:20 51° E
SPOT 5 3.9 23:01:22 31° SSW 23:03:28 46° W 23:08:34 10° NNW
Cosmos 1626 3.6 23:00:34 10° NNW 23:03:56 32° W 23:04:14 31° WSW
Cosmos 2034 Rocket 4.4 23:04:12 44° E 23:04:12 44° E 23:09:57 10° NNE
USA 215 3.2 22:58:20 10° ENE 23:04:47 58° SE 23:11:12 10° SW
SL-08 RB Rocket 4.4 23:09:02 45° SW 23:09:44 49° W 23:14:18 10° NNW
Terra 1.7 23:09:57 79° NE 23:09:57 79° NE 23:14:35 10° NNW
Cosmos 2297 Rocket 3.5 23:06:20 10° NNW 23:11:14 29° NE 23:12:32 26° ENE
Spot 4 4.2 23:15:12 54° NE 23:15:12 54° NE 23:19:29 10° N
Cosmos 1513 Rocket 4.4 23:19:58 61° E 23:19:58 61° E 23:25:55 10° NNE
CZ-4C R/B 4.4 23:26:27 47° NNE 23:26:27 47° NNE 23:29:44 10° N
Cosmos 1140 Rocket 3.9 23:21:57 10° NNW 23:26:53 54° NE 23:26:53 54° NE
Cosmos 2369 Rocket 2.3 23:25:00 36° SW 23:27:20 74° NW 23:32:58 10° NNE
Cosmos 1092 Rocket 4.2 23:22:38 10° N 23:28:45 54° ENE 23:28:53 54° ENE
Cosmos 2227 Rocket 2.8 23:32:26 10° NNW 23:37:54 44° NE 23:38:07 44° NE
CARTOSAT-1 4.5 23:40:01 46° WNW 23:40:01 46° WNW 23:43:25 10° NNW
USA 267 3.6 23:40:51 48° SSW 23:41:08 48° SW 23:47:26 10° WNW
Cosmos 676 Rocket 4.1 23:36:09 10° NNW 23:41:05 75° NW 23:41:05 75° NW
DMSP B5D2-2 4.2 23:36:24 10° NNE 23:40:57 68° NNE 23:40:57 68° NNE
CZ-3B DEB 2.8 23:37:10 10° W 23:40:51 35° WNW 23:40:51 35° WNW
CZ-4B R/B 4.4 23:37:56 10° NNE 23:41:10 38° NE 23:41:10 38° NE
Nadezhda 4 Rocket 3.8 23:40:18 10° N 23:46:28 89° E 23:46:36 87° SSE
Cosmos 2263 4.3 23:46:02 68° W 23:46:34 73° NW 23:52:17 10° NNE
Meteor 2-3 Rocket 3.8 23:41:28 10° NNW 23:46:37 71° NNE 23:46:37 71° NNE
Cosmos 1943 Rocket 2.3 23:51:45 68° NNE 23:51:45 68° NNE 23:56:41 10° NNE
H-2A R/B 3.3 23:52:15 32° WSW 23:52:54 33° W 23:57:40 10° NNW
Cosmos 2228 Rocket 4.1 23:54:53 46° NNW 23:54:53 46° NNW 23:58:16 10° N
ATLAS 5 CENTAUR R/B 3.4 23:49:24 10° W 23:54:06 36° NNW 23:59:17 10° NE
